FW2359 Weather Reports


Display with metric or nautical units.
time (UTC)temp
F
wind
direction
speed
MPH
gust
MPH
rain 1hr
in
rain 24hr
in
rain mn
in
humidity
%
barometer
mb
20260903071606 50 107 3.0 5.0 0.00 0.26 0.00 96 1010.3
20260903070035 51 166 4.0 7.0 0.00 0.26 0.00 96 1010.3
20260903064536 52 212 3.0 6.0 0.00 0.26 0.26 96 1010.4
20260903063029 52 228 4.0 8.0 0.00 0.26 0.26 96 1010.4
20260903061536 53 244 5.0 11.0 0.00 0.26 0.26 96 1010.3
20260903054532 53 210 2.0 4.0 0.00 0.26 0.26 95 1010.3
20260903053031 53 195 0.0 3.0 0.00 0.26 0.26 95 1010.3
20260903051537 54 164 1.0 4.0 0.00 0.26 0.26 95 1010.2
20260903050150 54 232 4.0 9.0 0.00 0.26 0.26 95 1010.1
20260903044535 55 236 4.0 7.0 0.00 0.26 0.26 94 1010.0
20260903043106 55 229 5.0 9.0 0.00 0.26 0.26 94 1009.9
20260903041531 55 241 6.0 12.0 0.01 0.26 0.26 94 1009.5
20260903034535 55 258 5.0 11.0 0.03 0.26 0.26 95 1009.2
20260903033036 55 262 5.0 12.0 0.07 0.26 0.25 96 1009.0
20260903031530 56 252 5.0 10.0 0.12 0.25 0.25 96 1008.9
20260903030031 56 249 7.0 13.0 0.14 0.25 0.23 96 1008.9
20260903023030 57 260 4.0 12.0 0.09 0.19 0.13 95 1008.8
20260903021532 58 250 5.0 13.0 0.03 0.13 0.11 95 1008.5
20260903020035 58 247 0.0 3.0 0.01 0.11 0.11 95 1008.3
20260903014536 58 247 0.0 1.0 0.02 0.11 0.10 94 1008.3
20260903010036 59 247 2.0 5.0 0.01 0.10 0.09 94 1008.4
20260903004537 59 228 1.0 4.0 0.00 0.09 0.09 93 1008.5
20260903003037 59 224 0.0 2.0 0.01 0.09 0.09 93 1008.5
20260903001535 59 168 0.0 2.0 0.01 0.09 0.09 93 1008.4
20260903000035 59 157 0.0 1.0 0.01 0.09 0.09 93 1008.3
20260902234632 59 168 1.0 3.0 0.01 0.09 0.08 93 1008.5
20260902230033 59 225 0.0 2.0 0.01 0.08 0.08 91 1008.6
20260902224534 59 225 1.0 3.0 0.01 0.08 0.08 90 1008.6
20260902223031 59 45 0.0 4.0 0.02 0.08 0.08 90 1008.5
20260902220035 59 41 0.0 4.0 0.02 0.07 0.07 88 1008.2
20260902214535 60 38 1.0 4.0 0.04 0.07 0.06 88 1008.2
20260902213032 60 41 2.0 5.0 0.04 0.06 0.05 87 1008.3
20260902211536 60 43 2.0 4.0 0.03 0.05 0.05 85 1008.5
20260902210151 60 270 0.0 2.0 0.03 0.05 0.03 84 1008.8
20260902203033 61 135 0.0 0.0 0.02 0.02 0.02 81 1008.6
20260902200034 61 138 0.0 2.0 0.02 0.02 0.01 78 1008.6
20260902194530 62 173 2.0 4.0 0.01 0.01 0.00 74 1008.6
20260902193037 63 127 1.0 4.0 0.00 0.00 0.00 71 1008.3
20260902191534 64 133 1.0 4.0 0.00 0.00 0.00 65 1008.2
20260902183033 67 77 2.0 6.0 0.00 0.00 0.00 59 1008.1
20260902181533 67 10 5.0 8.0 0.00 0.00 0.00 59 1008.2
20260902180035 68 20 6.0 10.0 0.00 0.00 0.00 58 1008.1
20260902174532 67 30 5.0 8.0 0.00 0.00 0.00 59 1008.3
20260902173032 68 39 5.0 10.0 0.00 0.00 0.00 60 1008.4
20260902171529 66 21 4.0 10.0 0.00 0.00 0.00 65 1008.6
20260902170035 64 360 2.0 9.0 0.00 0.00 0.00 64 1008.8
20260902164609 65 349 1.0 5.0 0.00 0.00 0.00 66 1008.9
20260902163153 63 117 2.0 5.0 0.00 0.00 0.00 70 1009.1
20260902161531 62 160 0.0 4.0 0.00 0.00 0.00 73 1009.3
20260902160152 61 221 1.0 3.0 0.00 0.00 0.00 75 1009.4
20260902153029 58 147 1.0 4.0 0.00 0.00 0.00 80 1009.7
20260902151531 57 137 2.0 4.0 0.00 0.00 0.00 80 1009.9
20260902144531 55 195 0.0 4.0 0.00 0.00 0.00 82 1010.0
20260902143032 54 141 4.0 6.0 0.00 0.00 0.00 83 1010.3
20260902141536 54 136 4.0 6.0 0.00 0.00 0.00 84 1010.2
20260902140032 53 136 5.0 7.0 0.00 0.00 0.00 84 1010.3
20260902134534 53 135 5.0 7.0 0.00 0.00 0.00 84 1010.4
20260902133038 53 146 5.0 7.0 0.00 0.00 0.00 83 1010.5
20260902131647 53 137 6.0 8.0 0.00 0.00 0.00 82 1010.6
20260902130034 53 139 5.0 7.0 0.00 0.00 0.00 81 1010.6
20260902123033 55 187 3.0 5.0 0.00 0.00 0.00 78 1010.6
20260902121531 56 158 3.0 6.0 0.00 0.00 0.00 77 1010.6
20260902120029 56 201 3.0 6.0 0.00 0.00 0.00 76 1010.7
20260902114530 57 196 2.0 7.0 0.00 0.00 0.00 73 1010.7
20260902113030 58 246 2.0 7.0 0.00 0.00 0.00 73 1010.7
20260902111536 59 242 3.0 8.0 0.00 0.00 0.00 73 1010.6
20260902103032 59 239 7.0 16.0 0.00 0.00 0.00 74 1010.8
20260902101537 60 245 6.0 14.0 0.00 0.00 0.00 73 1010.9
20260902094530 60 248 8.0 13.0 0.00 0.00 0.00 73 1010.9
20260902093107 59 237 7.0 15.0 0.00 0.00 0.00 73 1011.0
20260902091608 59 237 6.0 12.0 0.00 0.00 0.00 73 1011.0
20260902090037 59 239 7.0 16.0 0.00 0.00 0.00 73 1011.0
20260902084535 60 244 7.0 17.0 0.00 0.00 0.00 73 1011.0
20260902083106 60 250 8.0 17.0 0.00 0.00 0.00 73 1011.0
20260902081532 60 251 8.0 17.0 0.00 0.00 0.00 73 1011.0
20260902080033 60 243 8.0 17.0 0.00 0.00 0.00 72 1011.2
20260902073030 61 246 11.0 23.0 0.00 0.00 0.00 70 1011.1